Temperature
18 18 17 17 17 17 17 17 17 17 17 17 17 17 17 17 17 16 16 16 16 16 16 16 16 16 16 16 17 17 17 17 16 16 16 16 16 15 15 15 15 14 14
18 17 17 17 17 17 17 17 17 17 17 17 17 17 17 17 16 16 16 16 16 16 16 16 16 16 16 16 16 16 16 16 16 16 15 15 15 15 15 14 14 14 14
17 17 17 17 17 17 17 17 17 17 17 17 16 16 16 16 16 16 16 16 16 16 16 16 16 16 16 16 16 16 16 16 15 15 15 15 14 14 14 14 13 13 13
17 17 17 17 17 17 17 17 16 16 16 16 16 16 16 16 16 16 15 15 15 15 15 15 15 15 15 15 15 15 15 15 15 15 14 14 13 13 13 13 13 12 12
17 17 17 17 17 16 16 16 16 16 16 16 16 16 16 16 15 15 15 15 15 15 15 15 15 15 15 15 15 14 14 14 14 14 14 13 13 13 12 12 12 12 11
17 17 17 17 17 16 16 16 16 16 16 16 16 16 15 15 15 15 15 15 15 14 14 14 14 14 14 14 14 14 14 13 13 13 13 12 12 12 11 11 11 11 10
17 17 17 17 16 16 16 16 16 16 15 15 15 15 15 15 15 15 14 14 14 14 14 14 14 14 13 13 13 13 13 13 12 12 12 11 11 11 10 10 10 10 9
17 17 16 16 16 16 16 16 15 15 15 15 15 15 15 14 14 14 14 14 14 13 13 13 13 13 12 12 12 12 12 12 11 11 11 10 10 10 9 9 9 9 8
17 16 16 16 16 16 16 15 15 15 15 14 14 14 14 14 14 14 13 13 13 13 12 12 12 12 12 11 12 11 11 10 10 10 9 9 9 8 8 8 8 8 8
16 16 16 16 16 15 15 15 15 14 14 14 14 13 13 13 13 13 13 13 13 12 12 11 11 11 11 10 10 10 10 9 9 9 8 8 8 8 7 7 7 7 6
16 15 15 15 15 15 14 14 14 14 13 13 13 13 12 12 12 12 12 12 12 12 11 11 10 10 10 10 9 9 9 8 8 8 8 7 7 7 6 6 6 6 5
15 15 15 14 14 14 14 14 13 13 13 13 12 12 12 12 11 11 11 11 11 11 10 10 9 9 9 9 8 8 8 8 7 7 6 6 6 6 5 5 5 5 5
14 14 14 14 14 13 13 13 13 13 13 12 12 11 11 11 11 11 10 10 10 10 9 9 8 8 8 7 7 7 7 7 6 6 6 5 5 5 5 5 4 4 4
14 14 14 13 13 13 13 12 12 12 12 12 11 11 11 10 10 10 10 9 9 9 8 8 7 7 7 7 6 6 6 6 5 5 5 5 5 4 4 4 4 4 3
14 13 13 13 12 12 12 12 11 11 11 11 11 11 10 10 9 9 9 9 8 8 8 7 7 6 6 6 6 5 5 5 5 5 5 4 4 4 4 3 3 3 3
13 13 12 12 12 11 11 11 10 10 10 10 10 10 9 9 9 8 8 8 7 7 7 7 6 6 6 5 5 5 5 5 4 4 4 4 4 3 3 3 3 3 3
12 12 12 11 11 11 10 10 9 9 9 9 9 9 9 8 8 8 7 7 7 7 7 6 6 6 5 5 5 5 4 4 4 4 4 3 3 3 3 3 3 3 2
12 11 11 11 10 10 10 9 9 9 8 8 8 8 7 7 7 7 7 7 6 6 6 6 5 5 5 5 4 4 4 4 4 3 3 3 3 3 3 2 2 2 2
11 10 10 10 10 9 9 9 8 8 8 7 7 7 6 6 6 6 6 6 6 6 5 5 5 5 5 4 4 4 4 4 3 3 3 3 3 3 2 2 2 2 2
10 10 9 9 9 9 8 8 8 8 7 7 7 6 6 6 6 6 6 6 5 5 5 5 5 5 4 4 4 4 4 3 3 3 3 3 2 2 2 2 2 2 2
9 9 9 9 9 9 8 8 7 7 7 7 6 6 6 6 6 6 5 5 5 5 5 5 5 4 4 4 4 4 4 3 3 3 3 3 2 2 2 2 2 1 1
9 9 9 9 8 8 8 7 7 7 6 6 6 6 6 6 5 5 5 5 5 5 5 5 5 4 4 4 4 4 3 3 3 3 3 2 2 2 2 2 1 1 1
8 8 8 8 8 8 7 7 7 6 6 6 6 6 6 5 5 5 5 5 5 5 5 5 4 4 4 4 4 3 3 3 3 3 3 2 2 2 2 2 1 1 1
8 8 8 8 7 7 7 7 7 6 6 6 6 6 6 6 5 5 5 5 5 5 4 4 4 4 4 4 3 3 3 3 3 3 3 2 2 2 2 2 2 1 1
8 8 8 7 7 7 7 7 7 7 6 6 6 6 6 5 5 5 5 5 5 5 4 4 4 4 4 4 3 3 3 3 3 3 3 2 2 2 2 2 2 2 1
8 8 8 8 8 7 7 7 7 7 6 6 6 6 6 6 5 5 5 5 5 5 4 4 4 4 4 4 3 3 3 3 3 3 3 2 2 2 2 2 2 2 2
Wind_Speed
6 6 6 5 6 6 6 6 6 6 6 7 7 6 6 6 6 6 6 5 6 5 4 5 4 4 3 2 2 2 3 4 3 1 1 2 2 3 5 5 4 4 4
5 5 5 4 5 5 5 5 5 6 6 6 5 5 6 6 6 7 7 6 6 6 5 5 4 4 4 3 2 3 2 3 4 3 1 2 3 2 4 4 4 4 4
6 5 5 5 5 5 5 5 5 5 5 5 5 5 5 5 6 6 6 5 5 5 6 6 5 4 3 2 3 3 2 3 3 4 2 2 3 3 4 4 5 4 5
6 6 5 5 5 4 4 4 4 4 4 4 4 5 5 5 5 6 6 5 4 4 4 5 5 5 5 4 3 3 3 4 5 5 3 2 3 2 3 3 3 3 3
6 5 5 4 4 4 4 4 4 3 4 4 4 4 4 4 5 6 6 6 6 5 4 4 4 6 7 5 3 3 4 5 5 5 4 3 3 3 2 1 2 2 3
6 5 4 4 4 4 4 4 4 3 3 4 4 4 4 3 5 8 8 6 6 7 6 6 6 8 10 11 10 9 7 7 6 4 3 4 2 2 2 2 2 2 2
5 5 4 5 5 4 4 4 4 4 3 4 4 4 4 4 7 9 10 8 7 7 6 6 6 7 8 8 12 14 13 13 10 7 6 4 3 1 2 3 3 4 2
5 5 5 5 5 4 5 4 4 4 4 4 5 5 5 5 8 11 12 9 8 8 7 7 8 7 7 9 10 11 10 9 10 9 8 6 5 3 3 3 3 3 3
6 5 4 5 5 5 5 4 4 5 5 5 6 7 7 7 9 11 11 9 9 10 8 8 8 8 10 12 12 12 11 9 14 17 16 14 13 12 9 5 5 5 3
5 5 5 5 6 6 5 5 5 6 7 7 8 7 8 8 10 12 11 8 10 9 8 8 11 11 11 12 10 10 10 7 7 9 10 11 11 12 11 6 4 4 2
6 6 5 5 5 6 6 5 6 8 8 8 9 7 7 8 9 11 11 8 9 9 8 6 7 13 14 13 11 9 9 7 7 7 6 5 5 6 6 7 5 3 3
7 7 6 6 5 5 7 7 7 9 9 8 8 8 6 6 8 10 12 11 10 10 8 7 8 14 15 14 11 11 12 10 7 6 6 5 4 3 3 6 8 7 4
8 8 7 7 7 6 7 8 7 7 7 7 7 7 6 5 7 11 13 13 12 9 9 12 13 14 13 11 13 13 10 7 6 6 5 3 2 2 4 5 7 8 8
9 8 7 7 7 7 6 6 6 6 6 6 7 7 6 5 5 5 7 9 12 11 10 11 13 13 11 10 9 7 6 5 5 5 3 2 2 4 4 3 3 3 4
9 8 7 7 8 8 8 7 5 4 4 6 6 7 8 7 5 8 9 7 7 8 9 7 6 6 6 5 5 5 5 5 5 3 4 4 4 4 3 3 3 3 3
8 7 6 6 7 7 8 9 14 11 12 11 9 8 7 9 13 13 13 13 13 12 9 7 6 6 5 5 4 4 4 4 4 4 4 3 3 3 3 3 3 3 2
9 7 6 6 7 7 7 8 9 10 14 14 12 12 12 14 14 14 14 13 12 11 8 7 6 5 4 4 4 4 3 3 3 4 3 3 3 3 3 3 3 3 3
8 8 8 6 7 7 7 7 8 9 8 7 8 11 13 13 14 14 14 12 8 6 6 6 5 4 4 4 4 4 4 4 4 4 3 3 3 3 3 3 3 2 2
7 6 6 7 7 7 7 7 8 8 8 7 6 7 10 11 11 10 10 7 7 6 5 5 4 4 5 5 5 4 4 4 4 3 3 3 3 3 2 2 2 4 3
6 10 9 7 7 7 7 7 7 7 7 7 6 6 5 6 5 5 5 5 6 5 5 5 4 5 5 5 4 4 4 4 4 3 3 2 2 2 2 2 2 3 3
6 8 11 8 7 7 7 7 7 7 7 6 5 5 8 6 5 5 5 4 5 5 5 5 5 5 5 4 5 5 5 4 3 3 2 2 2 2 2 2 2 3 3
6 6 6 7 7 7 8 8 8 7 7 7 5 6 8 5 4 4 4 4 4 4 6 6 5 5 6 6 6 5 4 3 2 2 2 2 2 2 2 2 3 3 4
7 7 7 7 7 9 9 7 7 7 7 6 6 5 5 4 5 5 4 4 4 5 9 10 8 7 9 10 11 9 5 4 3 3 2 1 2 2 2 2 4 4 4
7 8 8 7 7 7 7 7 7 7 6 6 6 5 5 5 5 5 5 4 6 8 10 11 11 11 11 10 10 10 8 7 6 4 3 2 1 2 2 3 4 5 5
6 7 7 7 7 7 7 7 7 6 6 6 6 6 6 5 5 5 4 5 7 8 10 12 12 13 13 13 12 10 8 6 5 4 3 1 1 2 3 3 4 4 5
6 6 6 6 6 6 7 7 6 6 6 6 6 6 6 6 6 5 5 5 6 7 9 12 14 14 14 14 12 11 8 6 5 3 2 1 1 2 3 3 5 5 6
Wind_Direction
166 171 170 176 176 174 179 184 184 184 180 180 188 189 189 190 187 182 187 181 182 189 189 183 192 184 161 149 136 132 134 136 154 168 44 29 65 84 82 106 118 121 137
157 149 154 158 162 171 180 181 177 177 180 183 184 187 190 189 184 182 190 185 185 188 188 177 185 180 162 155 141 130 136 137 146 152 74 45 50 77 84 84 73 82 99
144 142 144 152 161 172 175 171 172 176 179 181 177 186 188 184 181 181 178 175 181 185 180 173 173 158 160 148 138 145 144 128 126 135 128 61 47 58 68 65 57 47 65
144 146 152 162 167 168 159 157 163 168 171 177 180 181 176 174 171 163 158 157 158 161 162 157 156 152 156 149 140 148 134 115 112 117 112 76 53 38 72 67 45 29 39
141 148 161 163 148 140 141 145 141 149 167 166 157 156 160 165 169 154 151 152 148 137 124 121 126 122 121 123 127 130 127 121 114 111 105 84 57 54 55 42 68 42 35
140 145 144 140 137 136 138 141 137 136 137 139 143 145 151 164 153 151 146 138 133 128 120 107 100 96 97 95 96 98 113 125 125 117 109 106 94 67 45 65 71 66 27
135 134 128 128 127 128 136 132 139 146 139 131 137 138 135 135 139 139 134 130 124 124 124 120 109 98 94 94 85 77 73 82 98 117 115 114 113 108 91 69 62 71 51
124 124 126 128 129 126 119 124 132 128 126 122 118 120 117 114 120 121 115 110 104 99 98 102 105 100 103 107 98 85 74 67 80 87 98 93 93 88 89 102 101 87 51
129 129 132 135 130 127 128 126 119 115 109 104 102 103 106 103 106 114 113 111 102 93 88 91 102 102 104 108 105 100 89 78 80 86 87 84 78 72 71 72 62 67 43
135 134 126 126 131 130 130 123 115 113 108 102 93 91 99 101 100 109 113 114 108 100 87 81 87 99 103 107 107 107 102 95 89 81 72 67 63 59 58 67 89 88 80
128 120 113 111 116 119 115 109 112 111 107 101 95 86 85 93 96 101 108 116 120 113 103 91 87 96 97 95 96 100 107 103 90 86 80 69 58 49 44 48 62 102 104
121 116 111 106 106 110 112 108 108 112 110 107 104 94 82 84 92 98 99 105 112 112 110 105 100 97 93 91 89 91 91 89 88 82 77 66 55 42 30 36 46 55 74
115 113 108 102 97 103 113 114 112 111 115 116 115 110 101 91 89 90 96 100 103 103 106 107 102 96 89 84 85 87 86 86 89 87 81 66 47 37 40 38 38 41 35
116 112 110 108 100 92 96 103 112 118 122 124 125 123 118 110 106 103 101 101 99 100 103 99 92 86 83 83 81 78 80 89 96 97 94 64 40 41 38 40 43 26 26
115 114 110 106 107 97 87 78 91 87 126 137 136 136 136 131 127 122 120 113 115 117 114 99 91 90 85 77 73 70 70 74 77 73 74 62 48 42 28 28 47 46 38
119 118 118 119 115 111 106 86 64 74 78 87 103 117 109 118 120 113 110 110 111 117 110 110 109 108 107 103 98 83 72 78 79 78 69 65 62 53 35 24 35 40 23
126 126 124 124 124 122 120 117 105 76 71 75 86 100 112 117 114 113 112 107 106 109 105 110 112 116 114 113 109 105 95 84 83 81 74 64 62 55 51 36 27 23 7
119 122 125 125 125 125 123 122 121 120 111 86 73 89 103 109 111 111 111 106 98 92 105 115 119 119 116 112 111 105 95 84 77 77 70 63 61 62 49 33 23 11 351
121 125 124 124 121 120 120 119 118 117 117 115 106 90 93 98 95 99 108 111 121 116 113 115 118 117 115 117 116 107 100 94 87 80 69 59 55 58 43 23 12 2 4
120 127 128 127 125 124 124 125 124 124 123 125 127 128 121 109 111 111 110 115 119 121 122 124 123 122 121 119 115 110 100 94 88 80 66 50 45 54 40 16 4 353 339
123 130 130 127 130 134 135 133 132 131 131 132 136 138 136 129 131 130 126 125 132 138 138 134 129 127 123 120 117 117 113 106 101 91 73 47 37 30 10 2 347 342 335
120 122 126 126 127 130 130 130 130 131 133 132 129 126 128 119 130 135 138 142 145 148 146 137 130 134 139 137 134 128 124 121 115 103 81 49 29 12 1 352 340 333 330
125 125 123 121 123 130 130 130 133 135 136 137 138 137 139 138 142 144 145 145 141 142 140 136 134 137 140 141 144 145 146 157 163 151 127 68 20 360 346 330 323 323 322
129 131 131 132 133 136 138 140 142 144 145 148 149 149 150 150 150 151 152 149 146 144 146 148 150 153 152 151 153 155 156 159 157 150 141 133 13 334 328 318 312 310 310
130 131 133 139 143 143 143 145 147 150 152 155 155 155 154 154 156 157 156 153 150 152 154 156 159 162 163 165 166 167 166 165 163 157 145 136 309 308 309 304 305 309 307
139 140 140 142 146 147 148 151 154 155 157 160 162 165 166 165 165 163 161 159 159 162 164 167 170 172 175 177 180 181 183 187 191 191 188 213 283 291 302 298 304 304 305
Height
1511 1512 1514 1515 1517 1519 1521 1523 1526 1528 1530 1532 1535 1537 1539 1541 1543 1545 1547 1549 1551 1553 1554 1556 1558 1560 1561 1563 1564 1565 1565 1566 1566 1567 1568 1569 1569 1570 1570 1570 1571 1571 1570
1510 1511 1512 1514 1515 1517 1518 1520 1523 1525 1527 1529 1531 1533 1535 1537 1539 1541 1543 1545 1547 1549 1550 1552 1554 1556 1558 1559 1560 1561 1562 1563 1564 1564 1565 1566 1567 1567 1567 1568 1568 1568 1567
1510 1510 1511 1512 1514 1515 1516 1518 1520 1522 1524 1526 1528 1529 1531 1533 1535 1537 1539 1541 1543 1545 1547 1549 1550 1552 1553 1555 1556 1558 1559 1560 1561 1561 1562 1563 1564 1564 1564 1564 1565 1565 1564
1509 1510 1511 1511 1512 1513 1514 1516 1518 1520 1521 1523 1524 1526 1528 1530 1532 1533 1535 1538 1539 1541 1543 1545 1547 1548 1550 1552 1553 1554 1555 1556 1557 1558 1559 1560 1561 1561 1561 1561 1561 1562 1561
1509 1509 1510 1511 1512 1513 1514 1515 1516 1517 1519 1521 1522 1523 1525 1527 1529 1530 1532 1534 1536 1538 1540 1542 1544 1545 1547 1548 1549 1550 1552 1553 1554 1554 1555 1557 1557 1558 1558 1558 1558 1558 1558
1508 1509 1510 1510 1511 1512 1513 1514 1515 1516 1517 1518 1520 1521 1522 1524 1526 1528 1530 1532 1534 1535 1538 1540 1541 1543 1544 1546 1547 1548 1549 1550 1551 1552 1552 1553 1554 1555 1555 1555 1555 1555 1555
1508 1508 1509 1510 1510 1511 1512 1513 1514 1515 1516 1517 1518 1519 1521 1522 1524 1525 1527 1529 1531 1533 1535 1537 1538 1540 1542 1543 1544 1546 1547 1548 1549 1550 1550 1551 1552 1552 1553 1552 1552 1553 1553
1507 1508 1509 1510 1510 1511 1512 1512 1513 1514 1515 1516 1517 1518 1519 1521 1522 1524 1525 1527 1529 1531 1533 1535 1536 1538 1540 1541 1543 1544 1545 1546 1547 1548 1549 1549 1550 1551 1551 1551 1551 1551 1551
1506 1507 1508 1509 1510 1510 1511 1512 1512 1513 1514 1515 1516 1517 1518 1520 1521 1523 1524 1526 1527 1529 1531 1533 1535 1536 1538 1540 1541 1542 1544 1545 1546 1547 1548 1549 1550 1550 1550 1550 1549 1549 1549
1505 1506 1507 1508 1509 1509 1510 1511 1512 1512 1513 1515 1516 1517 1518 1519 1521 1522 1524 1525 1527 1528 1531 1533 1535 1536 1538 1540 1541 1542 1543 1544 1546 1547 1548 1549 1549 1549 1549 1549 1548 1548 1548
1504 1505 1506 1507 1507 1508 1509 1510 1511 1511 1513 1514 1515 1517 1519 1520 1521 1523 1525 1526 1527 1529 1530 1533 1535 1537 1539 1540 1542 1543 1544 1545 1545 1547 1548 1548 1549 1549 1549 1549 1549 1548 1548
1502 1503 1504 1505 1506 1507 1508 1509 1510 1511 1512 1514 1515 1517 1519 1520 1522 1524 1526 1527 1528 1529 1531 1534 1536 1538 1540 1541 1542 1544 1545 1546 1546 1547 1548 1548 1549 1549 1549 1549 1549 1548 1548
1501 1502 1503 1504 1505 1506 1508 1508 1510 1511 1512 1513 1515 1516 1518 1521 1523 1525 1526 1528 1530 1531 1533 1535 1537 1539 1541 1542 1544 1545 1546 1547 1548 1548 1549 1550 1550 1550 1550 1549 1549 1549 1548
1500 1501 1502 1503 1504 1505 1507 1508 1509 1510 1512 1513 1515 1516 1519 1521 1523 1525 1526 1528 1530 1532 1534 1536 1539 1541 1543 1544 1545 1547 1547 1548 1549 1550 1550 1551 1551 1551 1550 1550 1549 1548 1547
1498 1500 1501 1502 1503 1505 1506 1507 1509 1511 1512 1514 1515 1517 1518 1520 1523 1525 1527 1528 1530 1533 1535 1537 1540 1542 1544 1545 1547 1548 1549 1550 1551 1551 1552 1552 1552 1551 1551 1550 1550 1549 1547
1498 1499 1500 1501 1503 1504 1505 1507 1510 1511 1513 1515 1516 1518 1520 1522 1524 1526 1528 1530 1532 1535 1537 1538 1541 1543 1545 1546 1548 1549 1550 1551 1552 1553 1553 1552 1552 1552 1551 1551 1550 1549 1548
1497 1498 1499 1501 1502 1504 1506 1507 1509 1512 1514 1516 1518 1519 1521 1523 1525 1527 1530 1532 1535 1537 1539 1540 1542 1544 1546 1548 1549 1550 1552 1553 1553 1553 1553 1553 1553 1552 1552 1551 1550 1549 1547
1497 1499 1500 1501 1503 1504 1506 1508 1509 1511 1513 1516 1519 1521 1523 1525 1527 1529 1532 1534 1536 1539 1541 1542 1545 1547 1549 1550 1551 1552 1553 1554 1554 1554 1554 1554 1553 1552 1551 1551 1550 1548 1547
1498 1499 1500 1502 1504 1505 1507 1509 1511 1513 1515 1518 1520 1523 1526 1528 1530 1532 1534 1536 1538 1540 1542 1545 1547 1549 1551 1552 1553 1554 1554 1554 1554 1554 1554 1554 1553 1552 1551 1550 1549 1548 1546
1499 1500 1502 1503 1505 1506 1508 1510 1512 1515 1517 1520 1522 1524 1527 1530 1532 1534 1536 1538 1540 1542 1544 1547 1549 1551 1552 1553 1554 1554 1554 1554 1554 1554 1554 1553 1553 1552 1551 1550 1548 1547 1545
1500 1501 1503 1505 1506 1508 1510 1512 1514 1517 1519 1522 1524 1527 1529 1531 1534 1536 1539 1541 1543 1545 1547 1549 1550 1552 1553 1554 1554 1554 1554 1554 1554 1554 1553 1553 1552 1551 1550 1549 1548 1546 1544
1501 1503 1504 1506 1508 1510 1512 1514 1516 1519 1522 1524 1527 1530 1532 1535 1537 1539 1541 1543 1545 1547 1549 1550 1551 1552 1553 1554 1554 1554 1554 1554 1553 1553 1552 1552 1551 1550 1549 1548 1547 1545 1543
1503 1505 1507 1508 1511 1513 1515 1517 1520 1522 1525 1527 1530 1532 1535 1537 1539 1541 1543 1545 1547 1548 1550 1551 1552 1553 1554 1554 1554 1554 1554 1553 1553 1552 1552 1551 1550 1549 1548 1547 1545 1544 1542
1506 1508 1509 1511 1514 1516 1518 1520 1523 1525 1527 1530 1532 1534 1537 1539 1541 1543 1545 1546 1548 1549 1551 1552 1553 1553 1554 1554 1554 1553 1553 1552 1552 1551 1550 1550 1549 1548 1547 1546 1544 1543 1541
1509 1510 1512 1514 1516 1518 1521 1523 1525 1527 1530 1532 1534 1536 1538 1540 1542 1544 1546 1547 1548 1549 1551 1552 1552 1553 1553 1553 1553 1553 1552 1551 1551 1550 1549 1549 1548 1547 1546 1544 1543 1541 1539
1512 1513 1515 1517 1519 1521 1523 1525 1527 1529 1531 1533 1535 1537 1539 1541 1542 1544 1545 1547 1548 1549 1550 1551 1552 1552 1552 1552 1552 1552 1551 1551 1550 1549 1548 1548 1547 1546 1544 1543 1541 1539 1537